SCP
0 0 0 0 0 0 0 0 0 0 0 0 0 0 0 0 0 0 0 0 0 0 0 0 0 0 0 0 0 0 0 0 0 0 0 0 0 0
0 0 0 0 0 0 0 0 1 0 0 0 0 0 0 0 0 0 0 0 0 0 0 0 0 0 0 0 0 0 0 0 0 0 0 0 0 0
0 0 0 0 0 0 0 0 0 0 0 0 0 0 0 0 0 0 0 0 0 0 0 0 0 0 0 0 0 0 0 0 0 0 0 0 0 0
0 0 0 0 0 0 -0 0 0 0 0 0 0 0 0 0 0 0 0 0 0 0 0 0 0 0 0 0 0 0 0 0 0 0 0 0 0 0
0 0 0 0 0 0 -0 -0 0 0 0 0 0 0 0 0 0 0 0 0 0 0 0 0 0 0 0 0 0 0 0 0 0 0 0 0 0 0
0 0 0 0 -0 -0 -0 -0 0 0 0 0 0 0 0 0 0 0 0 0 0 0 0 0 0 0 0 0 0 0 0 0 0 0 0 0 0 0
0 0 0 0 0 0 -0 -0 0 0 -0 0 0 0 0 0 0 0 0 0 0 0 0 0 0 0 0 0 0 0 0 0 0 0 0 0 0 0
0 0 0 0 0 0 0 0 -0 -0 -0 0 0 0 0 0 0 0 0 -0 0 0 0 0 0 0 0 0 0 0 0 0 0 0 0 0 0 0
0 0 0 0 0 0 0 0 0 0 0 0 -0 0 0 -0 -0 -0 -0 0 0 0 0 0 0 0 0 0 0 -0 0 0 0 0 0 0 0 0
0 0 0 0 0 0 0 0 0 0 0 0 0 0 0 0 -0 -0 -0 -0 0 0 0 0 0 0 0 0 -0 -0 0 0 0 0 0 0 -0 -0
0 0 0 0 0 0 -0 0 0 0 0 0 0 0 -0 -0 -0 -0 0 0 0 0 0 0 -0 -0 -0 0 -0 -0 -0 -0 0 -0 -0 -0 -0 -0
0 0 0 0 0 0 0 0 0 0 0 0 0 0 -0 -0 -0 0 0 0 0 -0 -0 -0 -0 0 0 0 -0 -0 -0 0 0 0 -0 0 -0 0
0 0 0 0 0 0 0 0 0 0 0 0 0 0 0 0 0 0 0 -0 0 -0 0 -0 0 0 0 0 0 -0 -0 -0 -0 0 0 0 -0 -0
0 0 0 0 0 0 0 0 0 0 0 0 0 0 0 0 0 0 0 0 0 -0 -0 0 0 0 0 -0 0 0 -0 -0 -0 0 0 0 0 0
0 0 0 0 0 0 0 0 0 0 0 0 0 0 0 0 0 0 0 0 -0 -0 0 0 0 0 -0 0 0 0 -0 -0 -0 0 0 0 0 0
0 0 0 0 0 0 0 0 0 0 0 0 0 0 0 0 0 0 -0 0 0 0 -0 0 0 -0 0 0 0 0 0 0 -0 0 0 0 0 0
0 0 0 0 0 0 0 0 0 0 0 0 0 0 0 0 0 0 0 0 -0 -0 0 0 -0 -0 0 0 0 0 0 0 -0 -0 0 0 0 0
0 0 0 0 0 0 0 0 0 0 0 0 0 0 0 -0 0 0 0 -0 -0 0 -0 -0 0 0 0 0 0 0 0 0 0 0 0 0 0 0
0 0 0 0 0 0 0 0 0 0 0 0 0 0 0 0 0 -0 -0 -0 0 0 0 0 0 0 0 0 0 -0 0 0 0 0 0 0 0 0
0 0 0 0 0 0 0 0 0 0 0 0 0 0 0 0 0 -0 0 0 0 0 0 0 0 0 0 0 0 0 0 0 0 0 0 0 0 0
0 0 0 0 0 0 0 0 0 0 0 0 0 0 0 0 0 0 0 0 0 0 0 0 0 0 0 0 0 0 0 0 0 0 0 0 0 0
0 0 0 0 0 0 0 0 0 0 0 0 0 0 0 0 0 0 0 0 0 0 0 0 0 0 0 0 0 0 0 0 0 0 0 0 0 0
0 0 0 0 0 0 0 0 0 0 0 0 0 0 0 0 0 0 0 0 0 0 0 0 0 0 0 0 0 0 0 0 0 0 0 0 0 0
Wind_Speed_500mb
51 46 42 25 34 32 29 29 28 25 25 25 25 22 21 17 15 14 8 5 7 13 9 9 10 11 15 21 24 26 26 22 18 20 27 28 25 26
40 44 46 53 49 40 37 32 31 27 23 18 26 30 28 22 15 10 8 6 7 5 9 10 12 12 16 22 27 28 26 18 16 22 28 28 30 32
41 37 41 42 50 41 40 38 39 35 30 25 27 27 31 24 18 16 9 4 4 9 9 9 11 16 21 25 25 28 32 26 22 23 29 37 33 26
38 38 33 27 37 45 40 46 44 40 36 36 32 35 35 29 23 16 14 11 3 5 10 11 14 16 19 23 26 30 32 26 28 29 32 31 35 35
52 46 36 37 37 35 38 35 39 44 46 39 43 41 41 37 28 22 18 12 4 1 5 11 14 17 23 25 32 32 29 25 28 29 35 30 27 29
40 42 38 37 37 34 34 33 36 45 47 44 49 46 45 43 37 33 24 14 6 5 4 7 10 16 21 26 32 35 27 21 21 27 31 33 30 31
36 37 38 36 34 30 33 29 33 39 48 52 53 54 55 54 53 39 25 16 14 10 5 8 14 16 20 27 34 34 29 23 18 19 24 25 25 24
27 31 32 31 26 31 29 25 26 41 49 57 58 63 55 52 45 32 28 26 18 14 9 10 14 19 21 31 32 37 31 30 21 18 20 22 22 23
29 29 30 29 23 27 29 31 34 32 49 53 54 52 49 37 39 34 30 22 18 12 14 14 10 9 21 25 35 36 35 29 27 30 28 22 22 23
26 30 34 31 24 24 25 21 35 35 46 49 47 44 31 23 22 18 24 28 19 22 21 16 7 7 16 25 30 36 34 32 30 34 35 29 22 24
31 27 27 31 30 27 14 21 31 45 48 45 42 38 16 11 16 25 30 32 30 27 23 11 8 4 10 20 29 32 34 39 34 34 39 36 27 26
28 23 31 34 35 22 18 16 36 44 42 37 40 31 24 26 25 17 17 37 38 31 22 11 9 3 8 16 24 26 23 32 36 38 37 36 33 33
27 32 34 37 39 25 20 26 43 45 43 48 49 40 36 32 25 19 19 28 32 15 17 9 8 6 4 5 17 26 29 29 34 38 43 45 45 51
29 32 41 43 34 31 26 38 41 51 52 47 43 38 33 27 27 37 45 38 17 17 24 16 10 6 4 8 15 22 33 34 34 36 39 43 50 55
27 37 43 38 38 35 34 54 51 50 44 38 36 33 29 33 48 52 45 33 19 23 23 19 10 6 10 19 20 23 26 37 41 41 46 48 51 52
42 46 41 35 43 42 43 36 39 37 35 33 33 35 42 53 51 40 35 20 30 27 23 13 15 26 38 37 36 37 35 29 36 40 44 52 55 58
53 43 38 43 49 45 42 39 33 32 32 26 41 50 58 55 42 35 29 31 29 26 25 29 34 43 44 37 38 35 33 35 37 37 40 45 52 62
45 41 45 45 54 52 42 39 35 35 35 42 47 59 60 45 42 36 34 29 30 30 34 35 38 40 40 42 35 28 27 29 31 36 40 42 45 45
45 38 41 40 43 46 43 41 40 36 40 41 59 56 43 42 42 38 30 30 34 34 31 26 21 20 24 29 28 31 23 23 24 27 32 37 34 45
46 38 45 43 42 41 41 38 39 40 42 58 50 43 38 45 36 30 31 36 36 33 29 25 21 20 20 21 20 26 33 28 26 25 20 22 35 42
33 35 42 45 38 36 40 38 41 38 52 60 53 43 45 36 33 29 33 36 32 26 24 20 20 26 28 24 20 17 23 30 35 36 26 19 25 29
36 42 39 38 36 37 39 42 44 48 60 51 47 43 36 32 32 33 35 32 26 24 24 27 26 19 15 16 15 13 12 15 26 31 33 35 29 26
36 36 34 33 36 42 51 41 45 61 47 40 40 36 32 34 33 33 31 28 28 27 25 24 20 18 15 12 12 12 12 13 11 13 21 27 33 38
Wind_Direction_500mb
235 235 246 238 235 236 231 226 220 212 194 195 185 192 205 201 197 203 215 260 271 317 351 333 332 334 339 336 336 334 334 329 325 331 338 338 335 322
236 235 238 239 252 253 248 242 238 242 228 198 201 200 205 210 213 219 223 278 298 33 23 8 356 347 348 343 340 342 347 350 350 339 336 328 322 322
248 250 245 243 232 245 246 248 248 238 233 223 220 204 204 212 215 218 214 252 327 32 28 17 8 355 360 356 357 4 5 3 358 346 340 336 335 323
248 254 246 245 247 245 241 244 243 228 224 223 227 206 204 204 211 220 214 210 166 17 15 4 20 6 13 11 5 4 1 2 358 351 337 332 336 340
248 243 245 245 246 240 234 228 226 219 216 216 216 218 200 196 203 206 217 192 172 352 41 27 24 29 26 18 14 5 4 359 350 350 340 330 333 346
233 236 240 241 242 238 228 226 217 214 211 210 217 216 204 195 203 206 201 205 181 208 86 25 36 44 35 25 12 7 4 352 354 7 20 29 33 27
239 234 227 233 229 234 222 219 215 210 206 203 208 208 198 196 200 203 204 206 208 188 112 74 62 54 38 28 20 17 18 13 4 11 16 15 15 12
228 216 217 213 223 213 215 219 222 215 205 202 200 200 199 203 210 209 203 200 193 197 159 114 77 51 40 36 22 15 17 20 6 356 352 352 350 354
215 208 202 208 216 210 216 217 222 217 210 199 200 200 196 225 218 206 204 211 212 201 165 128 100 58 43 30 23 16 16 14 17 19 10 357 1 3
205 206 205 205 200 200 208 226 214 207 198 195 198 193 220 220 202 229 204 206 196 167 152 141 138 70 40 31 15 17 19 22 24 22 20 20 22 19
209 209 202 200 204 212 210 231 203 187 188 200 203 198 229 196 203 191 189 196 172 149 140 144 187 93 33 27 18 16 26 28 29 30 34 33 29 28
197 199 205 196 193 187 203 191 177 180 180 189 185 192 177 151 164 177 200 184 160 150 169 164 168 75 346 13 21 30 29 34 41 43 43 41 41 52
193 189 185 186 188 190 188 179 179 169 179 170 164 162 154 155 157 158 164 152 144 138 164 126 123 57 77 62 36 38 45 46 48 54 55 53 51 50
174 176 173 176 173 175 185 160 178 167 163 158 161 160 158 153 148 139 133 137 140 150 118 104 100 94 66 48 77 51 58 66 62 55 55 58 54 51
162 165 160 167 164 172 143 153 154 159 158 163 166 162 155 148 140 138 146 151 110 128 97 93 89 33 105 118 98 79 70 58 58 48 51 50 48 45
146 151 152 155 156 165 160 150 146 153 158 160 164 156 147 142 140 143 149 137 117 112 109 98 94 106 101 97 94 82 74 67 53 51 48 53 52 48
147 140 146 145 154 157 154 155 156 156 155 161 158 150 144 141 139 137 136 137 119 113 110 109 112 112 103 94 89 81 74 64 58 52 46 48 49 50
148 141 138 139 159 145 152 155 151 151 153 155 152 148 144 141 136 137 134 124 119 119 117 115 112 105 97 94 91 77 70 62 54 50 49 50 50 47
147 142 140 144 142 146 147 149 147 158 156 154 150 144 138 138 131 127 127 126 124 121 119 121 117 109 105 96 87 78 63 56 47 44 50 49 50 49
148 147 149 151 148 147 148 146 145 148 149 148 140 141 137 136 131 131 134 135 128 122 114 109 107 106 105 105 102 72 62 56 47 45 43 29 32 33
139 144 149 153 154 151 148 150 152 149 152 150 141 139 137 136 138 134 139 140 131 124 118 115 116 115 113 98 81 70 55 53 49 50 51 54 49 43
144 151 154 155 152 154 153 154 153 149 149 144 143 137 140 141 139 137 137 133 130 127 123 123 118 114 104 101 87 65 45 33 38 46 49 54 65 54
139 142 144 148 149 152 152 150 147 145 145 146 143 145 141 142 141 139 137 135 129 126 124 122 116 109 109 99 80 49 34 33 49 57 45 53 56 58
Wind_Speed_850mb
51 46 42 25 34 32 29 29 28 25 25 25 25 22 21 17 15 14 8 5 7 13 9 9 10 11 15 21 24 26 26 22 18 20 27 28 25 26
40 44 46 53 49 40 37 32 31 27 23 18 26 30 28 22 15 10 8 6 7 5 9 10 12 12 16 22 27 28 26 18 16 22 28 28 30 32
41 37 41 42 50 41 40 38 39 35 30 25 27 27 31 24 18 16 9 4 4 9 9 9 11 16 21 25 25 28 32 26 22 23 29 37 33 26
38 38 33 27 37 45 40 46 44 40 36 36 32 35 35 29 23 16 14 11 3 5 10 11 14 16 19 23 26 30 32 26 28 29 32 31 35 35
52 46 36 37 37 35 38 35 39 44 46 39 43 41 41 37 28 22 18 12 4 1 5 11 14 17 23 25 32 32 29 25 28 29 35 30 27 29
40 42 38 37 37 34 34 33 36 45 47 44 49 46 45 43 37 33 24 14 6 5 4 7 10 16 21 26 32 35 27 21 21 27 31 33 30 31
36 37 38 36 34 30 33 29 33 39 48 52 53 54 55 54 53 39 25 16 14 10 5 8 14 16 20 27 34 34 29 23 18 19 24 25 25 24
27 31 32 31 26 31 29 25 26 41 49 57 58 63 55 52 45 32 28 26 18 14 9 10 14 19 21 31 32 37 31 30 21 18 20 22 22 23
29 29 30 29 23 27 29 31 34 32 49 53 54 52 49 37 39 34 30 22 18 12 14 14 10 9 21 25 35 36 35 29 27 30 28 22 22 23
26 30 34 31 24 24 25 21 35 35 46 49 47 44 31 23 22 18 24 28 19 22 21 16 7 7 16 25 30 36 34 32 30 34 35 29 22 24
31 27 27 31 30 27 14 21 31 45 48 45 42 38 16 11 16 25 30 32 30 27 23 11 8 4 10 20 29 32 34 39 34 34 39 36 27 26
28 23 31 34 35 22 18 16 36 44 42 37 40 31 24 26 25 17 17 37 38 31 22 11 9 3 8 16 24 26 23 32 36 38 37 36 33 33
27 32 34 37 39 25 20 26 43 45 43 48 49 40 36 32 25 19 19 28 32 15 17 9 8 6 4 5 17 26 29 29 34 38 43 45 45 51
29 32 41 43 34 31 26 38 41 51 52 47 43 38 33 27 27 37 45 38 17 17 24 16 10 6 4 8 15 22 33 34 34 36 39 43 50 55
27 37 43 38 38 35 34 54 51 50 44 38 36 33 29 33 48 52 45 33 19 23 23 19 10 6 10 19 20 23 26 37 41 41 46 48 51 52
42 46 41 35 43 42 43 36 39 37 35 33 33 35 42 53 51 40 35 20 30 27 23 13 15 26 38 37 36 37 35 29 36 40 44 52 55 58
53 43 38 43 49 45 42 39 33 32 32 26 41 50 58 55 42 35 29 31 29 26 25 29 34 43 44 37 38 35 33 35 37 37 40 45 52 62
45 41 45 45 54 52 42 39 35 35 35 42 47 59 60 45 42 36 34 29 30 30 34 35 38 40 40 42 35 28 27 29 31 36 40 42 45 45
45 38 41 40 43 46 43 41 40 36 40 41 59 56 43 42 42 38 30 30 34 34 31 26 21 20 24 29 28 31 23 23 24 27 32 37 34 45
46 38 45 43 42 41 41 38 39 40 42 58 50 43 38 45 36 30 31 36 36 33 29 25 21 20 20 21 20 26 33 28 26 25 20 22 35 42
33 35 42 45 38 36 40 38 41 38 52 60 53 43 45 36 33 29 33 36 32 26 24 20 20 26 28 24 20 17 23 30 35 36 26 19 25 29
36 42 39 38 36 37 39 42 44 48 60 51 47 43 36 32 32 33 35 32 26 24 24 27 26 19 15 16 15 13 12 15 26 31 33 35 29 26
36 36 34 33 36 42 51 41 45 61 47 40 40 36 32 34 33 33 31 28 28 27 25 24 20 18 15 12 12 12 12 13 11 13 21 27 33 38
Wind_Direction_850mb
235 235 246 238 235 236 231 226 220 212 194 195 185 192 205 201 197 203 215 260 271 317 351 333 332 334 339 336 336 334 334 329 325 331 338 338 335 322
236 235 238 239 252 253 248 242 238 242 228 198 201 200 205 210 213 219 223 278 298 33 23 8 356 347 348 343 340 342 347 350 350 339 336 328 322 322
248 250 245 243 232 245 246 248 248 238 233 223 220 204 204 212 215 218 214 252 327 32 28 17 8 355 360 356 357 4 5 3 358 346 340 336 335 323
248 254 246 245 247 245 241 244 243 228 224 223 227 206 204 204 211 220 214 210 166 17 15 4 20 6 13 11 5 4 1 2 358 351 337 332 336 340
248 243 245 245 246 240 234 228 226 219 216 216 216 218 200 196 203 206 217 192 172 352 41 27 24 29 26 18 14 5 4 359 350 350 340 330 333 346
233 236 240 241 242 238 228 226 217 214 211 210 217 216 204 195 203 206 201 205 181 208 86 25 36 44 35 25 12 7 4 352 354 7 20 29 33 27
239 234 227 233 229 234 222 219 215 210 206 203 208 208 198 196 200 203 204 206 208 188 112 74 62 54 38 28 20 17 18 13 4 11 16 15 15 12
228 216 217 213 223 213 215 219 222 215 205 202 200 200 199 203 210 209 203 200 193 197 159 114 77 51 40 36 22 15 17 20 6 356 352 352 350 354
215 208 202 208 216 210 216 217 222 217 210 199 200 200 196 225 218 206 204 211 212 201 165 128 100 58 43 30 23 16 16 14 17 19 10 357 1 3
205 206 205 205 200 200 208 226 214 207 198 195 198 193 220 220 202 229 204 206 196 167 152 141 138 70 40 31 15 17 19 22 24 22 20 20 22 19
209 209 202 200 204 212 210 231 203 187 188 200 203 198 229 196 203 191 189 196 172 149 140 144 187 93 33 27 18 16 26 28 29 30 34 33 29 28
197 199 205 196 193 187 203 191 177 180 180 189 185 192 177 151 164 177 200 184 160 150 169 164 168 75 346 13 21 30 29 34 41 43 43 41 41 52
193 189 185 186 188 190 188 179 179 169 179 170 164 162 154 155 157 158 164 152 144 138 164 126 123 57 77 62 36 38 45 46 48 54 55 53 51 50
174 176 173 176 173 175 185 160 178 167 163 158 161 160 158 153 148 139 133 137 140 150 118 104 100 94 66 48 77 51 58 66 62 55 55 58 54 51
162 165 160 167 164 172 143 153 154 159 158 163 166 162 155 148 140 138 146 151 110 128 97 93 89 33 105 118 98 79 70 58 58 48 51 50 48 45
146 151 152 155 156 165 160 150 146 153 158 160 164 156 147 142 140 143 149 137 117 112 109 98 94 106 101 97 94 82 74 67 53 51 48 53 52 48
147 140 146 145 154 157 154 155 156 156 155 161 158 150 144 141 139 137 136 137 119 113 110 109 112 112 103 94 89 81 74 64 58 52 46 48 49 50
148 141 138 139 159 145 152 155 151 151 153 155 152 148 144 141 136 137 134 124 119 119 117 115 112 105 97 94 91 77 70 62 54 50 49 50 50 47
147 142 140 144 142 146 147 149 147 158 156 154 150 144 138 138 131 127 127 126 124 121 119 121 117 109 105 96 87 78 63 56 47 44 50 49 50 49
148 147 149 151 148 147 148 146 145 148 149 148 140 141 137 136 131 131 134 135 128 122 114 109 107 106 105 105 102 72 62 56 47 45 43 29 32 33
139 144 149 153 154 151 148 150 152 149 152 150 141 139 137 136 138 134 139 140 131 124 118 115 116 115 113 98 81 70 55 53 49 50 51 54 49 43
144 151 154 155 152 154 153 154 153 149 149 144 143 137 140 141 139 137 137 133 130 127 123 123 118 114 104 101 87 65 45 33 38 46 49 54 65 54
139 142 144 148 149 152 152 150 147 145 145 146 143 145 141 142 141 139 137 135 129 126 124 122 116 109 109 99 80 49 34 33 49 57 45 53 56 58